Location: Newark
(11.2914°S, 14.4718°E)
Time: 14:51:02
(UTC+00:00)

Explorer 7 - Visible Passes

Search period start: 20 September 2019 00:00
Search period end: 30 September 2019 00:00
Orbit: 485 x 680 km, 50.3° (Epoch: 19 September)

Date Brightness Start Highest point End Pass type
(mag) Time Alt. Az. Time Alt. Az. Time Alt. Az.
20 Sep 7.3 17:23:32 10° SSW 17:27:06 37° SE 17:30:47 10° ENE visible
20 Sep 9.8 19:06:22 10° WNW 19:07:23 11° NW 19:07:40 11° NW visible
21 Sep 6.6 17:28:16 10° SW 17:32:05 89° SE 17:36:02 10° NE visible
22 Sep 8.1 17:33:30 10° WSW 17:37:04 38° NW 17:40:44 10° NNE visible
23 Sep 9.5 17:39:25 10° W 17:42:02 18° NW 17:44:42 10° N visible
25 Sep 10.0 04:12:12 10° NNE 04:14:42 14° NE 04:17:09 10° E visible
26 Sep 9.3 04:15:35 10° N 04:19:40 27° NE 04:23:37 10° ESE visible
27 Sep 8.0 04:19:54 10° NNW 04:24:38 54° NE 04:29:11 10° SE visible
28 Sep 7.2 04:24:46 10° NW 04:29:36 75° SW 04:34:16 10° SSE visible
29 Sep 9.6 02:51:42 13° NNE 02:54:11 18° NE 02:57:24 10° E visible
